Location: Saratoga Springs
(43.0831°N, 73.7850°W)
Time: 10:51:46
(UTC-04:00)

Vanguard 1 Rocket - Pass Details

Date: 24 April 2024
Orbit: 651 x 4220 km, 34.3° (Epoch: 19 May)

Event Time Altitude Azimuth Distance (km) Brightness Sun altitude
Rises 21:53:44 0° 263° (W) 3,364 10.9 -20.3°
Reaches altitude 10° 21:55:58 10° 253° (WSW) 2,647 10.1 -20.6°
Maximum altitude 22:01:36 35° 189° (S) 1,969 8.8 -21.3°
Enters shadow 22:04:10 30° 158° (SSE) 2,423 9.0 -21.6°
